Location: Eimen
(51.8766°N, 9.7806°E)
Time: 14:32:00
(UTC+00:00)

PEGASUS DEB - Visible Passes

Search period start: 03 October 2024 00:00
Search period end: 13 October 2024 00:00
Orbit: 560 x 932 km, 81.9° (Epoch: 02 October)

Date Brightness Start Highest point End Pass type
(mag) Time Alt. Az. Time Alt. Az. Time Alt. Az.
03 Oct ? 01:47:30 10° E 01:48:18 10° ENE 01:49:07 10° ENE visible
03 Oct ? 03:22:00 10° S 03:27:30 55° E 03:33:24 10° NNE visible
04 Oct ? 02:39:48 10° SSE 02:44:45 31° E 02:49:58 10° NNE visible
04 Oct ? 04:19:29 10° SSW 04:25:05 54° WNW 04:31:03 10° N visible
05 Oct ? 01:58:25 10° ESE 02:02:11 18° E 02:06:03 10° NE visible
05 Oct ? 03:36:08 10° S 03:41:53 88° E 03:48:01 10° NNE visible
06 Oct ? 02:53:20 10° SSE 02:58:54 51° E 03:04:45 10° NNE visible
06 Oct ? 04:34:28 10° SW 04:39:46 35° WNW 04:45:19 10° N visible
07 Oct ? 02:11:11 10° SE 02:16:05 29° E 02:21:12 10° NNE visible
07 Oct ? 03:50:34 10° SSW 03:56:19 59° WNW 04:02:23 10° N visible
08 Oct ? 01:29:54 10° ESE 01:33:27 17° ENE 01:37:05 10° NE visible
08 Oct ? 03:08:36 18° S 03:13:05 81° E 03:19:14 10° NNE visible
08 Oct ? 04:49:49 10° WSW 04:54:28 23° WNW 04:59:16 10° N visible
09 Oct ? 02:26:39 23° SSE 02:30:03 46° E 02:35:51 10° NNE visible
09 Oct ? 04:06:31 16° SW 04:10:48 38° WNW 04:16:30 10° N visible
10 Oct ? 01:44:35 20° ESE 01:47:11 27° E 01:52:09 10° NNE visible
10 Oct ? 03:24:26 31° SSW 03:27:20 65° WNW 03:33:26 10° N visible
11 Oct ? 01:02:25 13° E 01:04:29 15° ENE 01:07:48 10° NE visible
11 Oct ? 02:42:15 47° S 02:44:03 74° E 02:50:10 10° NNE visible
11 Oct ? 04:22:05 17° WSW 04:25:18 25° WNW 04:30:18 10° N visible
12 Oct ? 01:59:59 39° ESE 02:00:58 42° E 02:06:40 10° NNE visible
12 Oct ? 03:39:49 34° WSW 03:41:36 42° WNW 03:47:23 10° N visible
